Sydney, Australia

10:04 PM AEDT en Noviembre 24, 2017 (GMT +1100)
Kingsford Smith International

Tiempo Historia de YSSY - Noviembre, 2017

Change the Weather History Date:

Martes, Noviembre 14, 2017

  Actual Average Record
Temperature  
Temperatura media 65 ° F -  
Temperatura máxima 72 ° F 77 ° F 100 ° F (2011)
Temperatura mínima 58 ° F 61 ° F 55 ° F (2001)
Growing Degree Days 15 (Base 50)    
Moisture  
Punto de rocío 51 ° F    
Average Humidity 55    
Maximum Humidity 77    
Minimum Humidity 36    
Precipitación  
Precipitación 0.00 pul 0.12 pul - ()
Presión al nivel del mar  
Presión al nivel del mar 30.17 pul    
Viento  
Velocidad del viento 9 mph ()    
Velocidad máxima del viento 18 mph    
Max Gust Speed -    
Visibilidad 7.6 Millas    
Eventos      
Averages and records for this station are not official NWS values.
T = Trace of Precipitation, MM = Missing Value Source: Averaged Metar Reports

Daily Weather History Graph

Daily Weather History Graph

Search for Another Location

Airport or City:

Trip Planner

Search our weather history database for the weather conditions in past years. The results will help you decide how hot, cold, wet, or windy it might be!

Date:

Astronomía

Nov. 14, 2017 Salida Puesta
Hora real 5:44 AM AEDT 7:35 PM AEDT
Crepúsculo civil 5:16 AM AEDT 8:02 PM AEDT
Crepúsculo náutico 4:43 AM AEDT 8:36 PM AEDT
Crepúsculo astronómico 4:08 AM AEDT 9:11 PM AEDT
Luna 3:26 AM AEDT (11/14) 3:30 PM AEDT (11/14)
Horas de luz 14h 46m
Horas de luz
13h 51m
Creciente menguante, 19% of the Moon is Illuminated
Nov 14
Creciente menguante
Nov 18
Nueva
Nov 27
Cuarto creciente
Dic 4
Luna llena
Dic 10
Cuarto menguante

Hourly Weather History & Observations

Hora (AEDT) Temp. Punto de rocío Humedad Presión Visibilidad Wind Dir Velocidad del viento Velocidad de ráfagas Precip Eventos Condiciones
12:00 AM 64 ° F 46 ° F 40% 30.23 pul 25 mi Este 11.5 mph - -   Parcialmente nublado
12:00 AM 64.4 ° F 46.4 ° F 52% 30.21 pul 6.2 mi Este 11.5 mph - N/A   Nubes dispersas
12:30 AM 62.6 ° F 46.4 ° F 55% 30.21 pul 6.2 mi Este 10.4 mph - N/A   Parcialmente nublado
1:00 AM 62 ° F 46 ° F 46% 30.21 pul - ENE 6.9 mph - -  
1:00 AM 62.6 ° F 46.4 ° F 55% 30.18 pul - ENE 6.9 mph - N/A   Despejado
1:30 AM 62.6 ° F 46.4 ° F 55% 30.18 pul - ENE 5.8 mph - N/A   Despejado
2:00 AM 63 ° F 48 ° F 47% 30.19 pul - ENE 1.2 mph - -  
2:00 AM 62.6 ° F 48.2 ° F 59% 30.18 pul 6.2 mi ENE 1.2 mph - N/A   Parcialmente nublado
2:30 AM 62.6 ° F 48.2 ° F 59% 30.18 pul 6.2 mi Sin viento Sin viento - N/A   Parcialmente nublado
3:00 AM 62 ° F 48 ° F 50% 30.18 pul 25 mi Sin viento Sin viento - -   Parcialmente nublado
3:00 AM 62.6 ° F 48.2 ° F 59% 30.18 pul 6.2 mi Sin viento Sin viento - N/A   Parcialmente nublado
4:00 AM 60 ° F 50 ° F 61% 30.18 pul - SO 6.9 mph - -  
4:00 AM 59.0 ° F 50.0 ° F 72% 30.15 pul 6.2 mi SO 6.9 mph - N/A   Parcialmente nublado
5:00 AM 59 ° F 51 ° F 67% 30.19 pul - OSO 6.9 mph - -  
5:00 AM 59.0 ° F 51.8 ° F 77% 30.18 pul 6.2 mi OSO 6.9 mph - N/A   Parcialmente nublado
6:00 AM 59 ° F 51 ° F 66% 30.20 pul 19 mi OSO 6.9 mph - -   Parcialmente nublado
6:00 AM 59.0 ° F 50.0 ° F 72% 30.18 pul 6.2 mi OSO 6.9 mph - N/A   Nubes dispersas
6:30 AM 59.0 ° F 50.0 ° F 72% 30.18 pul 6.2 mi OSO 6.9 mph - N/A   Nubes dispersas
7:00 AM 61 ° F 51 ° F 60% 30.21 pul - SO 8.1 mph - -  
7:00 AM 60.8 ° F 50.0 ° F 68% 30.21 pul 6.2 mi SO 8.1 mph - N/A   Nubes dispersas
7:30 AM 62.6 ° F 50.0 ° F 63% 30.21 pul 6.2 mi OSO 6.9 mph - N/A   Muy nublado
8:00 AM 64 ° F 52 ° F 55% 30.23 pul - SO 8.1 mph - -  
8:00 AM 64.4 ° F 51.8 ° F 64% 30.21 pul 6.2 mi SO 8.1 mph - N/A   Muy nublado
8:30 AM 64.4 ° F 51.8 ° F 64% 30.21 pul 6.2 mi SO 6.9 mph - N/A   Muy nublado
9:00 AM 67 ° F 50 ° F 44% 30.23 pul 19 mi SSO 6.9 mph - -   Parcialmente nublado
9:00 AM 66.2 ° F 50.0 ° F 56% 30.21 pul 6.2 mi SSO 6.9 mph - N/A   Muy nublado
9:30 AM 66.2 ° F 51.8 ° F 60% 30.21 pul 6.2 mi SSO 8.1 mph - N/A   Nubes dispersas
10:00 AM 67 ° F 52 ° F 48% 30.24 pul - SSO 6.9 mph - -  
10:00 AM 66.2 ° F 51.8 ° F 60% 30.21 pul 6.2 mi SSO 6.9 mph - N/A   Nubes dispersas
10:30 AM 69.8 ° F 51.8 ° F 53% 30.21 pul 6.2 mi Este 9.2 mph - N/A   Nubes dispersas
11:00 AM 72 ° F 51 ° F 37% 30.22 pul - ESE 11.5 mph - -  
11:00 AM 71.6 ° F 51.8 ° F 50% 30.21 pul 6.2 mi ESE 11.5 mph - N/A   Nubes dispersas
11:30 AM 71.6 ° F 50.0 ° F 46% 30.21 pul 6.2 mi Este 12.7 mph - N/A   Nubes dispersas
12:00 PM 72 ° F 51 ° F 36% 30.20 pul 25 mi Este 13.8 mph - -   Parcialmente nublado
12:00 PM 71.6 ° F 50.0 ° F 46% 30.18 pul 6.2 mi Este 13.8 mph - N/A   Nubes dispersas
12:30 PM 71.6 ° F 48.2 ° F 43% 30.18 pul 6.2 mi ENE 13.8 mph - N/A   Nubes dispersas
1:00 PM 72 ° F 51 ° F 36% 30.18 pul - Este 16.1 mph - -  
1:00 PM 71.6 ° F 51.8 ° F 50% 30.18 pul 6.2 mi Este 16.1 mph - N/A   Nubes dispersas
1:30 PM 71.6 ° F 50.0 ° F 46% 30.15 pul 6.2 mi Este 15.0 mph - N/A   Parcialmente nublado
2:00 PM 71 ° F 50 ° F 37% 30.16 pul - Este 16.1 mph - -  
2:00 PM 71.6 ° F 50.0 ° F 46% 30.15 pul 6.2 mi Este 16.1 mph - N/A   Parcialmente nublado
2:30 PM 71.6 ° F 50.0 ° F 46% 30.15 pul 6.2 mi Este 17.3 mph - N/A   Parcialmente nublado
3:00 PM 71 ° F 50 ° F 36% 30.14 pul 19 mi Este 17.3 mph - -   Parcialmente nublado
3:00 PM 71.6 ° F 50.0 ° F 46% 30.12 pul 6.2 mi Este 17.3 mph - N/A   Parcialmente nublado
4:00 PM 71 ° F 50 ° F 36% 30.13 pul - ENE 16.1 mph - -  
4:00 PM 71.6 ° F 50.0 ° F 46% 30.12 pul 6.2 mi ENE 16.1 mph - N/A   Parcialmente nublado
5:00 PM 70 ° F 52 ° F 42% 30.13 pul - Este 17.3 mph - -  
5:00 PM 69.8 ° F 51.8 ° F 53% 30.12 pul 6.2 mi Este 17.3 mph - N/A   Parcialmente nublado
5:30 PM 69.8 ° F 53.6 ° F 56% 30.12 pul 6.2 mi ENE 16.1 mph - N/A   Parcialmente nublado
6:00 PM 70 ° F 54 ° F 47% 30.13 pul 19 mi NE 17.3 mph - -   Parcialmente nublado
6:00 PM 69.8 ° F 53.6 ° F 56% 30.12 pul 6.2 mi NE 17.3 mph - N/A   Muy nublado
6:30 PM 69.8 ° F 55.4 ° F 60% 30.12 pul 6.2 mi ENE 18.4 mph - N/A   Nubes dispersas
7:00 PM 68 ° F 54 ° F 51% 30.14 pul - ENE 17.3 mph - -  
7:00 PM 68.0 ° F 53.6 ° F 60% 30.12 pul 6.2 mi ENE 17.3 mph - N/A   Parcialmente nublado
7:30 PM 68.0 ° F 55.4 ° F 64% 30.12 pul 6.2 mi NE 16.1 mph - N/A   Parcialmente nublado
8:00 PM 67 ° F 54 ° F 54% 30.15 pul - ENE 15.0 mph - -  
8:00 PM 66.2 ° F 53.6 ° F 64% 30.12 pul 6.2 mi ENE 15.0 mph - N/A   Parcialmente nublado
8:30 PM 68.0 ° F 55.4 ° F 64% 30.15 pul 6.2 mi ENE 12.7 mph - N/A   Parcialmente nublado
9:00 PM 68 ° F 56 ° F 55% 30.16 pul 19 mi NE 11.5 mph - -   Parcialmente nublado
9:00 PM 68.0 ° F 55.4 ° F 64% 30.15 pul 6.2 mi NE 11.5 mph - N/A   Nubes dispersas
9:30 PM 68.0 ° F 55.4 ° F 64% 30.15 pul 6.2 mi NE 10.4 mph - N/A   Nubes dispersas
10:00 PM 68 ° F 55 ° F 54% 30.17 pul - NE 9.2 mph - -  
10:00 PM 68.0 ° F 55.4 ° F 64% 30.15 pul 6.2 mi NE 9.2 mph - N/A   Parcialmente nublado
10:30 PM 68.0 ° F 55.4 ° F 64% 30.15 pul 6.2 mi NE 8.1 mph - N/A   Parcialmente nublado
11:00 PM 67 ° F 54 ° F 54% 30.17 pul - NNE 5.8 mph - -  
11:00 PM 66.2 ° F 53.6 ° F 64% 30.15 pul 6.2 mi NNE 5.8 mph - N/A   Nubes dispersas
11:30 PM 66.2 ° F 55.4 ° F 68% 30.15 pul 6.2 mi NE 4.6 mph - N/A   Parcialmente nublado